Time,TemperatureF,DewpointF,PressureIn,WindDirection,WindDirectionDegrees,WindSpeedMPH,WindSpeedGustMPH,Humidity,HourlyPrecipIn,Conditions,Clouds,dailyrainin,SolarRadiationWatts/m^2,SoftwareType,DateUTC
2013-05-26 00:03:00,40.0,34.0,-100.00,NW,314,2.0,5.0,78,0.00,,,0.00,0.000000,,2013-05-26 04:03:00,
2013-05-26 00:33:00,35.0,33.0,-100.00,SW,236,0.0,0.0,93,0.00,,,0.00,0.000000,,2013-05-26 04:33:00,
2013-05-26 00:43:00,35.0,33.0,-100.00,SW,236,0.0,0.0,93,0.00,,,0.00,0.000000,,2013-05-26 04:43:00,
2013-05-26 00:52:00,35.0,33.0,-100.00,SW,236,0.0,0.0,93,0.00,,,0.00,0.000000,,2013-05-26 04:52:00,
2013-05-26 01:02:00,35.0,33.0,-100.00,SW,236,0.0,0.0,93,0.00,,,0.00,0.000000,,2013-05-26 05:02:00,
2013-05-26 01:32:00,33.0,32.0,-100.00,SSW,196,0.0,0.0,96,0.00,,,0.00,0.000000,,2013-05-26 05:32:00,
2013-05-26 01:42:00,33.0,32.0,-100.00,SSW,196,0.0,0.0,96,0.00,,,0.00,0.000000,,2013-05-26 05:42:00,
2013-05-26 01:52:00,33.0,32.0,-100.00,SSW,196,0.0,0.0,96,0.00,,,0.00,0.000000,,2013-05-26 05:52:00,
2013-05-26 02:01:00,33.0,32.0,-100.00,SSW,196,0.0,0.0,96,0.00,,,0.00,0.000000,,2013-05-26 06:01:00,
2013-05-26 02:32:00,32.0,31.0,-100.00,WSW,258,0.0,0.0,97,0.00,,,0.00,0.000000,,2013-05-26 06:32:00,
2013-05-26 02:42:00,32.0,31.0,-100.00,WSW,258,0.0,0.0,97,0.00,,,0.00,0.000000,,2013-05-26 06:42:00,
2013-05-26 02:52:00,32.0,31.0,-100.00,WSW,258,0.0,0.0,97,0.00,,,0.00,0.000000,,2013-05-26 06:52:00,
2013-05-26 03:02:00,32.0,31.0,-100.00,WSW,258,0.0,0.0,97,0.00,,,0.00,0.000000,,2013-05-26 07:02:00,
2013-05-26 03:32:00,32.0,32.0,-100.00,West,261,1.0,2.0,98,0.00,,,0.00,0.000000,,2013-05-26 07:32:00,
2013-05-26 03:42:00,32.0,32.0,-100.00,West,261,1.0,2.0,98,0.00,,,0.00,0.000000,,2013-05-26 07:42:00,
2013-05-26 03:52:00,32.0,32.0,-100.00,West,261,1.0,2.0,98,0.00,,,0.00,0.000000,,2013-05-26 07:52:00,
2013-05-26 04:01:00,32.0,32.0,-100.00,West,261,1.0,2.0,98,0.00,,,0.00,0.000000,,2013-05-26 08:01:00,
2013-05-26 04:32:00,32.0,32.0,-100.00,West,268,0.0,3.0,98,0.00,,,0.00,0.000000,,2013-05-26 08:32:00,
2013-05-26 04:42:00,32.0,32.0,-100.00,West,268,0.0,3.0,98,0.00,,,0.00,0.000000,,2013-05-26 08:42:00,
2013-05-26 04:53:00,32.0,32.0,-100.00,West,268,0.0,3.0,98,0.00,,,0.00,0.000000,,2013-05-26 08:53:00,
2013-05-26 05:01:00,32.0,32.0,-100.00,West,268,0.0,3.0,98,0.00,,,0.00,0.000000,,2013-05-26 09:01:00,
2013-05-26 05:34:00,31.0,31.0,-100.00,WSW,253,1.0,2.0,98,0.00,,,0.00,0.000000,,2013-05-26 09:34:00,
2013-05-26 05:43:00,31.0,31.0,-100.00,WSW,253,1.0,2.0,98,0.00,,,0.00,0.000000,,2013-05-26 09:43:00,
2013-05-26 05:53:00,31.0,31.0,-100.00,WSW,253,1.0,2.0,98,0.00,,,0.00,0.000000,,2013-05-26 09:53:00,
2013-05-26 06:03:00,31.0,31.0,-100.00,WSW,253,1.0,2.0,98,0.00,,,0.00,0.000000,,2013-05-26 10:03:00,
2013-05-26 06:33:00,30.0,29.0,-100.00,West,277,0.0,1.0,98,0.00,,,0.00,3.000000,,2013-05-26 10:33:00,
2013-05-26 06:42:00,30.0,29.0,-100.00,West,277,0.0,1.0,98,0.00,,,0.00,3.000000,,2013-05-26 10:42:00,
2013-05-26 06:52:00,30.0,29.0,-100.00,West,277,0.0,1.0,98,0.00,,,0.00,3.000000,,2013-05-26 10:52:00,
2013-05-26 07:03:00,30.0,29.0,-100.00,West,277,0.0,1.0,98,0.00,,,0.00,3.000000,,2013-05-26 11:03:00,
2013-05-26 07:32:00,36.0,35.0,-100.00,West,279,2.0,3.0,96,0.00,,,0.00,100.000000,,2013-05-26 11:32:00,
2013-05-26 07:42:00,36.0,35.0,-100.00,West,279,2.0,3.0,96,0.00,,,0.00,100.000000,,2013-05-26 11:42:00,
2013-05-26 07:52:00,36.0,35.0,-100.00,West,279,2.0,3.0,96,0.00,,,0.00,100.000000,,2013-05-26 11:52:00,
2013-05-26 08:02:00,36.0,35.0,-100.00,West,279,2.0,3.0,96,0.00,,,0.00,100.000000,,2013-05-26 12:02:00,
2013-05-26 08:32:00,42.0,38.0,-100.00,WNW,300,3.0,5.0,85,0.00,,,0.00,294.000000,,2013-05-26 12:32:00,
2013-05-26 08:42:00,42.0,38.0,-100.00,WNW,300,3.0,5.0,85,0.00,,,0.00,294.000000,,2013-05-26 12:42:00,
2013-05-26 08:52:00,42.0,38.0,-100.00,WNW,300,3.0,5.0,85,0.00,,,0.00,294.000000,,2013-05-26 12:52:00,
2013-05-26 09:02:00,42.0,38.0,-100.00,WNW,300,3.0,5.0,85,0.00,,,0.00,294.000000,,2013-05-26 13:02:00,
2013-05-26 09:32:00,47.0,37.0,-100.00,WNW,283,5.0,7.0,67,0.00,,,0.00,522.000000,,2013-05-26 13:32:00,
2013-05-26 09:42:00,47.0,37.0,-100.00,WNW,283,5.0,7.0,67,0.00,,,0.00,522.000000,,2013-05-26 13:42:00,
2013-05-26 09:52:00,47.0,37.0,-100.00,WNW,283,5.0,7.0,67,0.00,,,0.00,522.000000,,2013-05-26 13:52:00,
2013-05-26 10:02:00,47.0,37.0,-100.00,WNW,283,5.0,7.0,67,0.00,,,0.00,522.000000,,2013-05-26 14:02:00,
2013-05-26 10:32:00,53.0,35.0,-100.00,NW,309,5.0,9.0,50,0.00,,,0.00,736.000000,,2013-05-26 14:32:00,
2013-05-26 10:42:00,53.0,35.0,-100.00,NW,309,5.0,9.0,50,0.00,,,0.00,736.000000,,2013-05-26 14:42:00,
2013-05-26 10:52:00,53.0,35.0,-100.00,NW,309,5.0,9.0,50,0.00,,,0.00,736.000000,,2013-05-26 14:52:00,
2013-05-26 11:02:00,53.0,35.0,-100.00,NW,309,5.0,9.0,50,0.00,,,0.00,736.000000,,2013-05-26 15:02:00,
2013-05-26 11:33:00,57.0,32.0,-100.00,NNW,335,7.0,14.0,39,0.00,,,-99.99,917.000000,,2013-05-26 15:33:00,
2013-05-26 11:43:00,57.0,32.0,-100.00,NNW,335,7.0,14.0,39,0.00,,,-99.99,917.000000,,2013-05-26 15:43:00,
2013-05-26 11:53:00,57.0,32.0,-100.00,NNW,335,7.0,14.0,39,0.00,,,-99.99,917.000000,,2013-05-26 15:53:00,
2013-05-26 12:03:00,57.0,32.0,-100.00,NNW,335,7.0,14.0,39,0.00,,,-99.99,917.000000,,2013-05-26 16:03:00,
2013-05-26 12:33:00,59.0,29.0,-100.00,NW,314,6.0,16.0,32,0.00,,,0.00,1034.000000,,2013-05-26 16:33:00,
2013-05-26 12:42:00,59.0,29.0,-100.00,NW,314,6.0,16.0,32,0.00,,,0.00,1034.000000,,2013-05-26 16:42:00,
2013-05-26 12:53:00,59.0,29.0,-100.00,NW,314,6.0,16.0,32,0.00,,,0.00,1034.000000,,2013-05-26 16:53:00,
2013-05-26 13:02:00,59.0,29.0,-100.00,NW,314,6.0,16.0,32,0.00,,,0.00,1034.000000,,2013-05-26 17:02:00,
2013-05-26 13:32:00,60.0,28.0,-100.00,WNW,292,7.0,13.0,30,0.00,,,0.00,1128.000000,,2013-05-26 17:32:00,
2013-05-26 13:42:00,60.0,28.0,-100.00,WNW,292,7.0,13.0,30,0.00,,,0.00,1128.000000,,2013-05-26 17:42:00,
2013-05-26 13:52:00,60.0,28.0,-100.00,WNW,292,7.0,13.0,30,0.00,,,0.00,1128.000000,,2013-05-26 17:52:00,
2013-05-26 14:01:00,60.0,28.0,-100.00,WNW,292,7.0,13.0,30,0.00,,,0.00,1128.000000,,2013-05-26 18:01:00,
2013-05-26 14:32:00,62.0,27.0,-100.00,WNW,287,6.0,10.0,26,0.00,,,0.00,1143.000000,,2013-05-26 18:32:00,
2013-05-26 14:42:00,62.0,27.0,-100.00,WNW,287,6.0,10.0,26,0.00,,,0.00,1143.000000,,2013-05-26 18:42:00,
2013-05-26 14:52:00,62.0,27.0,-100.00,WNW,287,6.0,10.0,26,0.00,,,0.00,1143.000000,,2013-05-26 18:52:00,
2013-05-26 15:01:00,62.0,27.0,-100.00,WNW,287,6.0,10.0,26,0.00,,,0.00,1143.000000,,2013-05-26 19:01:00,
2013-05-26 15:32:00,64.0,28.0,-100.00,NW,311,6.0,15.0,26,0.00,,,0.00,1097.000000,,2013-05-26 19:32:00,
2013-05-26 15:42:00,64.0,28.0,-100.00,NW,311,6.0,15.0,26,0.00,,,0.00,1097.000000,,2013-05-26 19:42:00,
2013-05-26 15:52:00,64.0,28.0,-100.00,NW,311,6.0,15.0,26,0.00,,,0.00,1097.000000,,2013-05-26 19:52:00,
2013-05-26 16:02:00,64.0,28.0,-100.00,NW,311,6.0,15.0,26,0.00,,,0.00,1097.000000,,2013-05-26 20:02:00,
2013-05-26 16:32:00,63.0,28.0,-100.00,NW,315,6.0,16.0,26,0.00,,,0.00,992.000000,,2013-05-26 20:32:00,
2013-05-26 16:42:00,63.0,28.0,-100.00,NW,315,6.0,16.0,26,0.00,,,0.00,992.000000,,2013-05-26 20:42:00,
2013-05-26 16:52:00,63.0,28.0,-100.00,NW,315,6.0,16.0,26,0.00,,,0.00,992.000000,,2013-05-26 20:52:00,
2013-05-26 17:02:00,63.0,28.0,-100.00,NW,315,6.0,16.0,26,0.00,,,0.00,992.000000,,2013-05-26 21:02:00,
2013-05-26 17:33:00,63.0,29.0,-100.00,WNW,303,7.0,12.0,28,0.00,,,0.00,832.000000,,2013-05-26 21:33:00,
2013-05-26 17:43:00,63.0,29.0,-100.00,WNW,303,7.0,12.0,28,0.00,,,0.00,832.000000,,2013-05-26 21:43:00,
2013-05-26 17:53:00,63.0,29.0,-100.00,WNW,303,7.0,12.0,28,0.00,,,0.00,832.000000,,2013-05-26 21:53:00,
2013-05-26 18:03:00,63.0,29.0,-100.00,WNW,303,7.0,12.0,28,0.00,,,0.00,832.000000,,2013-05-26 22:03:00,
2013-05-26 18:33:00,62.0,30.0,-100.00,WNW,290,6.0,12.0,30,0.00,,,0.00,630.000000,,2013-05-26 22:33:00,
2013-05-26 18:42:00,62.0,30.0,-100.00,WNW,290,6.0,12.0,30,0.00,,,0.00,630.000000,,2013-05-26 22:42:00,
2013-05-26 18:53:00,62.0,30.0,-100.00,WNW,290,6.0,12.0,30,0.00,,,0.00,630.000000,,2013-05-26 22:53:00,
2013-05-26 19:02:00,62.0,30.0,-100.00,WNW,290,6.0,12.0,30,0.00,,,0.00,630.000000,,2013-05-26 23:02:00,
2013-05-26 19:32:00,61.0,31.0,-100.00,NW,319,4.0,6.0,32,0.00,,,0.00,404.000000,,2013-05-26 23:32:00,
2013-05-26 19:43:00,61.0,31.0,-100.00,NW,319,4.0,6.0,32,0.00,,,0.00,404.000000,,2013-05-26 23:43:00,
2013-05-26 19:52:00,61.0,31.0,-100.00,NW,319,4.0,6.0,32,0.00,,,0.00,404.000000,,2013-05-26 23:52:00,
2013-05-26 20:02:00,61.0,31.0,-100.00,NW,319,4.0,6.0,32,0.00,,,0.00,404.000000,,2013-05-27 00:02:00,
2013-05-26 20:32:00,55.0,30.0,-100.00,NW,313,3.0,7.0,38,0.00,,,0.00,170.000000,,2013-05-27 00:32:00,
2013-05-26 20:42:00,55.0,30.0,-100.00,NW,313,3.0,7.0,38,0.00,,,0.00,170.000000,,2013-05-27 00:42:00,
2013-05-26 20:52:00,55.0,30.0,-100.00,NW,313,3.0,7.0,38,0.00,,,0.00,170.000000,,2013-05-27 00:52:00,
2013-05-26 21:01:00,55.0,30.0,-100.00,NW,313,3.0,7.0,38,0.00,,,0.00,170.000000,,2013-05-27 01:01:00,
2013-05-26 21:32:00,45.0,32.0,-100.00,ENE,75,0.0,0.0,60,0.00,,,0.00,9.000000,,2013-05-27 01:32:00,
2013-05-26 21:42:00,45.0,32.0,-100.00,ENE,75,0.0,0.0,60,0.00,,,0.00,9.000000,,2013-05-27 01:42:00,
2013-05-26 21:52:00,45.0,32.0,-100.00,ENE,75,0.0,0.0,60,0.00,,,0.00,9.000000,,2013-05-27 01:52:00,
2013-05-26 22:02:00,45.0,32.0,-100.00,ENE,75,0.0,0.0,60,0.00,,,0.00,9.000000,,2013-05-27 02:02:00,
2013-05-26 22:32:00,40.0,35.0,-100.00,East,85,0.0,0.0,81,0.00,,,0.00,0.000000,,2013-05-27 02:32:00,
2013-05-26 22:43:00,40.0,35.0,-100.00,East,85,0.0,0.0,81,0.00,,,0.00,0.000000,,2013-05-27 02:43:00,
2013-05-26 22:52:00,40.0,35.0,-100.00,East,85,0.0,0.0,81,0.00,,,0.00,0.000000,,2013-05-27 02:52:00,
2013-05-26 23:02:00,40.0,35.0,-100.00,East,85,0.0,0.0,81,0.00,,,0.00,0.000000,,2013-05-27 03:02:00,
2013-05-26 23:33:00,37.0,34.0,-100.00,ESE,114,0.0,0.0,89,0.00,,,0.00,0.000000,,2013-05-27 03:33:00,
2013-05-26 23:43:00,37.0,34.0,-100.00,ESE,114,0.0,0.0,89,0.00,,,0.00,0.000000,,2013-05-27 03:43:00,
2013-05-26 23:53:00,37.0,34.0,-100.00,ESE,114,0.0,0.0,89,0.00,,,0.00,0.000000,,2013-05-27 03:53:00,